Skip Page Navigation
NASA JPL Caltech
NASA Logo - Jet Propulsion Laboratory + View the NASA Portal
+ Center for Near-Earth Object Studies
JPL Home Earth Solar System Stars & Galaxies Technology
JPL Solar System Dynamics
BODIES ORBITS EPHEMERIDES TOOLS PHYSICAL DATA DISCOVERY FAQ SITE MAP
JPL Small-Body Database Browser
Search: [ help ]  
357621 (2005 EG94)
Classification: Apollo [NEO]          SPK-ID: 2357621
Ephemeris | Orbit Diagram | Orbital Elements | Mission Design | Physical Parameters | Discovery Circumstances | Close-Approach Data ]

[ show orbit diagram ]
Orbital Elements at Epoch 2459000.5 (2020-May-31.0) TDB
Reference: JPL 38 (heliocentric ecliptic J2000)
 Element Value Uncertainty (1-sigma)   Units 
e .464708770784297 7.8622e-07  
a 1.604875377011417 6.5963e-08 au
q .8590757132984563 1.2343e-06 au
i 10.7439687491464 3.8134e-05 deg
node 332.0404620430626 4.2469e-05 deg
peri 38.35158200344924 0.00018391 deg
M 321.7401845272955 0.00022597 deg
tp 2459079.422488049247
(2020-Aug-17.92248805)
0.00046311 TDB
period 742.6093238217212
2.03
4.5784e-05
1.253e-07
d
yr
n .4847771074935029 2.9888e-08 deg/d
Q 2.350675040724378 9.6617e-08 au
  Orbit Determination Parameters
   # obs. used (total)      101  
   data-arc span      5789 days (15.85 yr)  
   first obs. used      2005-03-08  
   last obs. used      2021-01-12  
   planetary ephem.      DE431  
   SB-pert. ephem.      SB431-N16  
   condition code      1  
   norm. resid. RMS      .82167  
   source      ORB  
   producer      Otto Matic  
   solution date      2021-Jan-13 05:25:26  

Additional Information
 Earth MOID = .0557253 au 
 Jupiter MOID = 3.14852 au 
 T_jup = 4.208 
[ show covariance matrix ]

Ephemeris | Orbit Diagram | Orbital Elements | Mission Design | Physical Parameters | Discovery Circumstances | Close-Approach Data ]

Physical Parameter Table
Parameter Symbol Value Units Sigma Reference Notes
absolute magnitude H 18.7   n/a MPO353156  

357621 (2005 EG94)          Discovered 2005-Mar-08 by Spacewatch at Kitt Peak
Reference: 20130327/Numbers.arcLast Updated: 2013-03-29

[ hide close-approach data ]
Close-Approach Data   ...sorted by Date/Time (TDB)
Date/Time (TDB) Time Uncertainty
(days_HH:MM)
Body Nominal Distance (au) Minimum Distance (au) Maximum Distance (au) V-relative (km/s) V-infinity (km/s) JD (TDB) Time Uncertainty (minutes) Semi-major axis (km) Semi-minor axis (km) range-LOV angle (deg) N-sigma BP Orbit Ref. Reference Modified
1900-Aug-02 21:29 00:55 Earth 0.0842200973484743 0.083955819346786 0.0844853641347829 13.471517817395 13.4691691693146 2415234.395218622 55.4291994324294 19530.4213372367 57.6164515098231 47.4700259771558 140471.954277712 T 38 CATAB v2.0f-lin.ifort 2021-Jan-13 05:25:26 2021-Jan-13 05:25
1902-Aug-30 20:19 01:52 Earth 0.115763426174827 0.115548772966604 0.115979127326805 10.5527588687201 10.5505775463241 2415992.346380104 111.771102289413 20417.6580885084 96.6865267998304 -58.2962267511735 137690.760506827 T 38 CATAB v2.0f-lin.ifort 2021-Jan-13 05:25:26 2021-Jan-13 05:25
1904-Oct-11 12:38 02:10 Earth 0.18565641708207 0.185606199755067 0.185706931777759 10.4251654582734 10.4237887303773 2416765.026722101 130.029241119975 11996.3781733051 118.242804404078 -77.9261574323217 206808.897567788 T 38 CATAB v2.0f-lin.ifort 2021-Jan-13 05:25:26 2021-Jan-13 05:25
1906-Nov-26 01:09 01:13 Earth 0.187529909201895 0.187475727049788 0.187584947485234 11.5993213013797 11.5980963124384 2417540.547769545 72.6404056397853 20171.6090812898 62.2980635906918 -82.2485555354766 505665.256235732 T 38 CATAB v2.0f-lin.ifort 2021-Jan-13 05:25:26 2021-Jan-13 05:25
1908-Dec-11 19:56 00:33 Earth 0.290382325856073 0.290089170650314 0.290675699557119 17.6805371613513 17.6800181783947 2418287.330305037 32.9926450957357 19277.8143610445 52.7418470764188 -40.6628560195767 497235.787842773 T 38 CATAB v2.0f-lin.ifort 2021-Jan-13 05:25:26 2021-Jan-13 05:25
1910-Dec-23 13:57 00:27 Earth 0.46830216029845 0.46796245166641 0.468641911135376 23.9730098772559 23.9727725400742 2419029.081230148 26.9767880874006 18334.2233333536 54.0991842916169 -22.482778081022 426681.569871031 T 38 CATAB v2.0f-lin.ifort 2021-Jan-13 05:25:26 2021-Jan-13 05:25
1959-Jul-12 12:35 00:08 Earth 0.382444428581783 0.382354235285764 0.382534622159936 22.322798135754 22.3224860324098 2436762.024588288 8.47886574444041 4527.32115982879 79.3054208147646 6.57885620079142 74725.2991097804 T 38 CATAB v2.0f-lin.ifort 2021-Jan-13 05:25:26 2021-Jan-13 05:25
1961-Jul-24 03:04 00:09 Earth 0.192371938710235 0.19229649206168 0.192447388274815 16.8446342266361 16.8438119467816 2437504.627742558 8.96114429807151 3943.37933081059 66.7202457455695 17.4396373874694 112650.272998426 T 38 CATAB v2.0f-lin.ifort 2021-Jan-13 05:25:26 2021-Jan-13 05:25
1963-Aug-11 06:56 00:13 Earth 0.0581065755050747 0.0581052694383063 0.0581078843939756 11.996680755349 11.9928578356446 2438252.788826460 12.5021742090347 3193.88927257286 63.8714085309782 -89.7625424580398 122399.166598348 T 38 CATAB v2.0f-lin.ifort 2021-Jan-13 05:25:26 2021-Jan-13 05:25
1965-Sep-14 01:58 00:20 Earth 0.150117414798252 0.150091088542862 0.150143757279889 10.5326964923696 10.5310111953356 2439017.581891094 20.4482547881966 2800.11842049522 128.118875550902 -62.1453265038975 135655.910128986 T 38 CATAB v2.0f-lin.ifort 2021-Jan-13 05:25:26 2021-Jan-13 05:25
1967-Oct-28 15:55 00:25 Earth 0.19013003803937 0.190127138375431 0.190132950703258 9.99842068035174 9.99701896232097 2439792.163502232 25.2969211222333 2679.73614211856 54.5069661904003 87.1302320604729 465803.061559016 T 38 CATAB v2.0f-lin.ifort 2021-Jan-13 05:25:26 2021-Jan-13 05:25
1969-Dec-03 16:24 00:08 Earth 0.205786815640655 0.205759580590891 0.205814070071654 13.5840952838283 13.5831420941564 2440559.183018649 8.25629674176258 3433.08429736174 63.9254438373902 -66.7151478738166 496638.8312104 T 38 CATAB v2.0f-lin.ifort 2021-Jan-13 05:25:26 2021-Jan-13 05:25
1971-Dec-17 08:42 00:05 Earth 0.348362745107743 0.348308735268651 0.348416758503317 19.9000784027484 19.8996940499397 2441302.862809773 5.17773865900668 3214.96289720963 50.1330712860025 -33.103141524753 511845.517301322 T 38 CATAB v2.0f-lin.ifort 2021-Jan-13 05:25:26 2021-Jan-13 05:25
2000-Sep-09 20:36 00:02 Mars 0.0618425723183242 0.0618296849849973 0.0618554644970526 10.1274116498187 10.1269545300751 2451797.358052500 2.24097365558131 1083.27191111335 90.837142188803 53.8800158868016 84474.4159749834 T 38 CATAB v2.0f-lin.ifort 2021-Jan-13 05:25:26 2021-Jan-13 05:25
2022-Jul-16 16:02 00:02 Earth 0.313707270514906 0.313688617131085 0.313725923943219 20.4064265828202 20.4060103606199 2459777.168016747 1.81359253299048 949.847983526114 231.36010367237 12.0557196277598 58336.3109669676 T 38 CATAB v2.0f-lin.ifort 2021-Jan-13 05:25:26 2021-Jan-13 05:25
2024-Jul-29 17:50 00:02 Earth 0.1252877637054 0.12527095425945 0.125304573888227 14.9329723372124 14.9315481137057 2460521.242722102 2.14812844897677 971.65758421323 185.928198568799 31.0190160494441 49512.5788822791 T 38 CATAB v2.0f-lin.ifort 2021-Jan-13 05:25:26 2021-Jan-13 05:25
2026-Aug-21 03:15 00:04 Earth 0.0826112476478872 0.0825991504422678 0.0826233473738227 10.8931214598718 10.8901601772044 2461273.635325908 4.05809142834235 954.762153924016 140.548280591013 -51.588762376047 64093.6921215857 T 38 CATAB v2.0f-lin.ifort 2021-Jan-13 05:25:26 2021-Jan-13 05:25
2028-Sep-29 19:19 00:05 Earth 0.176590236018612 0.176584178684742 0.176596293502199 10.5696484169728 10.5682207909389 2462044.305149916 5.09887407486411 414.237840471812 128.728204655266 -46.0543785337559 117718.266520751 T 38 CATAB v2.0f-lin.ifort 2021-Jan-13 05:25:26 2021-Jan-13 05:25
2030-Nov-18 05:45 00:05 Earth 0.184941915719982 0.184939571418228 0.18494426036934 10.1778752888453 10.1764596577828 2462823.739539981 4.80873245322416 548.319929200321 77.7849059945457 80.7433979476676 230966.666197826 T 38 CATAB v2.0f-lin.ifort 2021-Jan-13 05:25:26 2021-Jan-13 05:25
2032-Dec-09 18:08 00:02 Earth 0.248095010355181 0.248089181370043 0.248100839565184 15.9886875359345 15.9880158122917 2463576.255670385 1.78914220627321 482.510243821108 73.9099735984591 -53.8767891552948 301357.428475594 T 38 CATAB v2.0f-lin.ifort 2021-Jan-13 05:25:26 2021-Jan-13 05:25
2034-Dec-22 00:08 00:01 Earth 0.415765787197855 0.415757869401436 0.415773705025352 22.2999795573337 22.2996921737598 2464318.505877735 1.42950817682307 434.864736573686 70.8580204593501 -25.1399063510929 324235.811077352 T 38 CATAB v2.0f-lin.ifort 2021-Jan-13 05:25:26 2021-Jan-13 05:25
2083-Jul-13 14:13 00:03 Earth 0.378410404776202 0.378360568083272 0.37846024187946 22.2900192331966 22.2897033388005 2482054.092642355 3.19319298291555 2561.7656891013 88.3519052832512 14.0582565571241 139340.877282303 T 38 CATAB v2.0f-lin.ifort 2021-Jan-13 05:25:26 2021-Jan-13 05:25
2085-Jul-25 09:42 00:04 Earth 0.185314527661118 0.185265839495066 0.185363218278569 16.718874290261 16.7180142732777 2482796.904101801 4.35375773772714 2650.59302079846 74.2626635437303 23.6659205856264 130074.21725189 T 38 CATAB v2.0f-lin.ifort 2021-Jan-13 05:25:26 2021-Jan-13 05:25
2087-Aug-12 21:25 00:09 Earth 0.0559126555744249 0.0558997917844405 0.055925564350585 11.8352727384255 11.8312455879174 2483545.392061139 8.78120884369555 2597.71293236125 71.5161026360204 -75.7602782821546 103645.139894829 T 38 CATAB v2.0f-lin.ifort 2021-Jan-13 05:25:26 2021-Jan-13 05:25
2089-Sep-18 06:20 00:18 Earth 0.15850020654708 0.158474681244192 0.158525741683635 10.5110055760204 10.5094061236858 2484312.763638836 18.0883444630595 2356.3990768262 151.282976777294 -57.4843124552337 111784.034541737 T 38 CATAB v2.0f-lin.ifort 2021-Jan-13 05:25:26 2021-Jan-13 05:25
2091-Nov-04 18:18 00:26 Earth 0.190080378912591 0.190076708074418 0.190084066948567 9.80926506153678 9.80783593647481 2485090.262359878 26.1010201689804 3016.4134998661 58.9246983093568 86.6982109477824 376795.752398282 T 38 CATAB v2.0f-lin.ifort 2021-Jan-13 05:25:26 2021-Jan-13 05:25
